Change the Weather History Date:

Tuesday, July 2, 2013

  Actual Average Record
Temperature  
Mean Temperature 58 °F -  
Max Temperature 64 °F 66 °F 75 °F (1999)
Min Temperature 53 °F 52 °F 46 °F (2006)
Degree Days  
Heating Degree Days 6    
Growing Degree Days 8 (Base 50)    
Moisture  
Dew Point 45 °F    
Average Humidity 66    
Maximum Humidity 93    
Minimum Humidity 38    
Precipitation  
Precipitation 0.01 in - - ()
Sea Level Pressure  
Sea Level Pressure 29.73 in    
Wind  
Wind Speed 3 mph (SSW)    
Max Wind Speed 14 mph    
Max Gust Speed 21 mph    
Visibility 10 miles    
Events Rain    
Averages and records for this station are not official NWS values.
T = Trace of Precipitation, MM = Missing Value Source: NWS Daily Summary

Daily Weather History Graph

Daily Weather History Graph

Search for Another Location

Airport or City:

Trip Planner

Search our weather history database for the weather conditions in past years. The results will help you decide how hot, cold, wet, or windy it might be!

Date:

Astronomy

Jul. 02, 2013 Rise Set
Actual Time 4:28 AM AKDT 11:37 PM AKDT
Civil Twilight 2:35 AM AKDT 1:31 AM AKDT
Nautical Twilight Sun does not rise Sun does not rise
Astronomical Twilight Sun does not rise Sun does not rise
Moon 1:40 AM AKDT (7/2) 6:09 PM AKDT (7/2)
Length of Visible Light 22h 55m
Length of Day
19h 08m
Waning Crescent, 25% of the Moon is Illuminated
Jul 2
Waning Crescent
Jul 7
New
Jul 15
First Quarter
Jul 22
Full
Jul 29
Last Quarter

Hourly Weather History & Observations

Time (AKDT) Temp. Dew Point Humidity Pressure Visibility Wind Dir Wind Speed Gust Speed Precip Events Conditions
12:53 AM 54.0 °F 52.0 °F 93% 29.61 in 10.0 mi Calm Calm - N/A   Overcast
1:53 AM 54.0 °F 51.1 °F 90% 29.61 in 10.0 mi Calm Calm - N/A   Overcast
2:53 AM 54.0 °F 50.0 °F 86% 29.62 in 10.0 mi Calm Calm - N/A   Overcast
3:53 AM 53.1 °F 50.0 °F 89% 29.62 in 10.0 mi Calm Calm - N/A   Overcast
4:53 AM 53.1 °F 51.1 °F 93% 29.63 in 10.0 mi Calm Calm - 0.00 in Rain Light Rain
5:53 AM 53.1 °F 51.1 °F 93% 29.64 in 10.0 mi Calm Calm - 0.01 in Rain Light Rain
6:53 AM 53.1 °F 50.0 °F 89% 29.65 in 10.0 mi Calm Calm - 0.00 in   Overcast
7:53 AM 55.0 °F 48.9 °F 80% 29.67 in 10.0 mi Calm Calm - N/A   Mostly Cloudy
8:53 AM 55.9 °F 46.0 °F 69% 29.68 in 10.0 mi NE 3.5 mph - N/A   Overcast
9:53 AM 57.0 °F 46.0 °F 67% 29.69 in 10.0 mi NNE 3.5 mph - N/A   Overcast
10:53 AM 57.9 °F 46.9 °F 67% 29.71 in 10.0 mi Calm Calm - 0.00 in Rain Light Rain
11:53 AM 59.0 °F 45.0 °F 60% 29.73 in 10.0 mi SSW 11.5 mph 18.4 mph 0.00 in   Overcast
12:53 PM 59.0 °F 48.9 °F 69% 29.74 in 10.0 mi West 8.1 mph 16.1 mph N/A   Overcast
1:53 PM 63.0 °F 46.0 °F 54% 29.75 in 10.0 mi WNW 10.4 mph 20.7 mph N/A   Mostly Cloudy
2:53 PM 61.0 °F 37.9 °F 42% 29.77 in 10.0 mi South 13.8 mph 19.6 mph N/A   Mostly Cloudy
3:53 PM 63.0 °F 39.0 °F 41% 29.77 in 10.0 mi South 12.7 mph 18.4 mph N/A   Mostly Cloudy
4:53 PM 62.1 °F 37.9 °F 41% 29.78 in 10.0 mi South 8.1 mph 16.1 mph N/A   Overcast
5:53 PM 64.0 °F 37.9 °F 38% 29.79 in 10.0 mi South 10.4 mph 20.7 mph N/A   Overcast
6:53 PM 62.1 °F 37.0 °F 39% 29.80 in 10.0 mi SSE 10.4 mph 18.4 mph N/A   Overcast
7:53 PM 61.0 °F 37.9 °F 42% 29.82 in 10.0 mi South 8.1 mph 19.6 mph N/A   Overcast
8:53 PM 60.1 °F 37.9 °F 44% 29.83 in 10.0 mi South 5.8 mph - N/A   Overcast
9:53 PM 57.9 °F 41.0 °F 53% 29.85 in 10.0 mi SSW 5.8 mph - N/A   Overcast
10:53 PM 55.9 °F 44.1 °F 64% 29.87 in 10.0 mi SSW 11.5 mph - N/A   Overcast
11:53 PM 55.0 °F 46.0 °F 72% 29.90 in 10.0 mi SW 9.2 mph - N/A   Overcast